Wind_Speed
41 42 43 44 45 46 46 47 44 42 44 48 48 47 45 44 45 46 45 45 45 47 49 51 53 54 56 58 60 62 63 64 64 63 59 55 51 48 45 42 40 39 39 39 40 40 41 41 42 41 41 41 41 41 42 44 46 50 54 56 57 56 57 60 64 67 68 68 67 65 63 61 60 58
44 44 44 45 47 47 48 48 45 43 45 48 48 46 45 45 45 45 44 44 45 47 49 50 53 55 56 58 60 61 62 61 59 56 52 48 46 44 41 39 38 38 39 39 40 42 44 45 46 46 46 45 44 43 43 44 45 47 50 54 57 59 60 61 63 67 71 72 72 70 68 65 63 62
45 46 46 47 48 49 49 48 44 44 47 48 47 46 47 47 46 45 45 44 46 48 49 50 52 53 54 54 55 56 55 53 52 49 46 44 44 43 42 40 40 41 41 42 42 44 46 48 50 51 52 51 50 50 51 50 49 49 51 54 57 61 64 66 67 69 72 74 75 74 72 70 67 65
46 46 49 51 51 51 50 48 46 47 49 49 48 48 49 48 45 45 45 45 46 49 51 52 51 51 50 48 48 49 49 48 47 46 46 46 45 43 43 43 43 45 46 47 47 48 50 52 54 56 57 57 56 57 58 58 56 54 54 56 58 62 66 70 72 73 74 76 77 77 76 74 71 68
46 48 51 53 54 53 51 50 50 50 50 50 49 50 50 46 43 43 45 46 48 50 52 52 49 45 43 42 43 44 44 45 46 48 49 48 45 44 43 44 46 47 49 50 51 52 54 56 58 60 61 62 63 63 64 65 64 60 57 56 58 61 65 70 74 77 79 80 81 80 79 78 76 73
48 50 53 55 56 54 53 53 53 52 52 52 51 52 49 43 41 44 46 48 49 49 49 49 45 41 41 43 44 42 43 46 49 50 48 44 44 44 44 45 46 48 49 51 54 56 58 60 62 64 66 67 68 69 69 70 70 67 63 59 58 59 63 68 73 78 81 84 85 84 83 81 80 78
50 52 54 56 56 55 55 54 54 54 54 54 53 51 45 41 43 46 48 50 51 49 49 47 44 43 45 47 46 45 48 52 53 52 47 42 42 45 47 48 49 51 53 56 59 61 63 64 66 68 70 71 72 73 74 75 75 73 69 64 60 59 61 66 71 76 81 85 87 89 88 86 84 82
52 54 55 56 57 57 56 55 55 57 57 56 53 47 42 41 45 47 49 51 52 52 52 49 47 48 50 51 51 52 54 56 57 56 52 47 48 50 52 54 56 59 62 64 66 66 66 67 69 71 73 74 76 77 79 79 79 78 74 69 64 62 61 64 68 73 79 83 88 91 93 92 89 87
55 56 57 57 58 59 58 56 58 60 59 56 51 43 41 44 46 48 50 51 52 53 54 53 53 54 55 56 57 58 59 61 62 61 57 54 54 56 59 61 61 63 65 67 68 67 67 69 71 73 75 76 78 80 81 82 81 79 76 71 67 63 62 62 65 70 75 81 86 91 95 97 96 93
56 57 58 58 58 59 59 59 60 61 59 56 50 45 46 49 49 50 51 50 51 52 54 55 56 58 59 61 62 63 64 65 64 62 59 58 59 60 63 65 64 63 64 65 65 66 67 68 70 72 74 76 77 78 79 79 78 76 73 70 67 64 62 63 64 68 73 79 84 90 94 99 101 99
58 59 60 60 60 60 60 61 61 61 59 55 51 47 49 52 53 52 52 52 52 53 55 56 57 59 62 64 65 67 67 66 65 64 63 63 64 65 65 66 65 64 62 62 62 62 63 64 65 67 68 70 71 72 73 72 72 71 70 68 67 65 65 65 66 69 73 77 83 88 94 98 102 103
60 61 61 62 62 62 62 62 62 61 60 57 53 52 53 56 56 55 55 55 55 58 61 60 57 58 62 65 67 68 68 67 66 66 66 67 67 67 67 66 64 62 60 59 59 60 60 61 62 63 65 67 68 69 70 70 71 71 70 68 68 67 67 67 69 71 73 77 81 86 92 96 100 104
62 63 63 64 64 64 63 64 63 62 61 60 59 59 59 60 61 60 57 57 59 64 66 62 58 61 65 67 67 67 68 68 68 68 67 67 67 67 67 66 63 60 58 58 59 60 62 63 63 64 66 67 69 70 71 72 72 72 70 69 68 67 67 68 70 72 75 77 80 83 88 94 98 102
64 64 65 65 66 66 65 65 64 63 62 62 62 63 63 65 66 63 61 62 66 68 66 62 62 66 69 68 67 68 69 69 69 69 68 67 67 66 65 63 63 61 59 58 59 63 66 66 66 66 68 70 71 72 73 74 74 73 71 69 67 66 66 67 69 72 75 77 79 80 83 89 95 99
65 65 65 66 67 68 67 66 67 65 64 64 64 64 66 68 69 67 66 68 69 67 64 63 67 71 71 70 70 70 69 69 69 69 69 69 68 65 62 60 62 63 62 60 61 65 69 70 68 68 70 72 74 75 75 75 74 73 70 68 66 65 65 66 68 71 73 75 77 78 80 83 89 95
66 66 67 68 69 68 67 68 69 68 67 66 66 67 69 70 70 69 70 71 70 68 67 69 72 74 73 72 73 72 70 70 70 70 70 69 66 63 60 59 62 64 65 64 64 67 72 72 70 70 72 74 75 75 75 74 73 70 68 66 65 63 63 64 65 67 69 72 74 76 77 78 82 89
68 68 68 69 69 69 68 68 69 70 69 68 68 70 72 72 71 72 74 73 72 72 72 73 74 74 73 73 74 73 72 72 72 71 69 68 65 62 61 62 64 66 67 67 67 69 73 74 71 72 74 74 75 74 73 71 69 66 64 62 61 60 60 60 62 63 65 68 70 72 74 75 77 82
69 68 68 68 68 69 69 69 70 71 71 70 71 72 72 72 73 75 76 75 74 74 74 74 73 73 73 74 74 75 74 74 73 70 67 66 65 64 64 66 68 69 71 71 69 70 74 74 72 72 73 73 72 71 69 67 65 62 60 59 57 57 56 56 58 59 60 63 66 68 70 71 73 76
69 69 69 69 70 71 71 71 71 72 72 72 72 73 73 74 76 76 75 74 75 75 74 73 73 74 74 75 75 75 74 73 71 68 66 66 66 66 68 70 72 73 75 75 72 71 73 74 72 72 71 69 69 68 66 64 61 58 56 55 54 54 53 53 54 55 56 59 62 65 66 68 70 72
69 70 70 71 72 73 73 74 73 73 73 74 74 75 76 77 76 75 75 75 76 75 74 74 74 75 75 75 75 74 73 71 69 68 67 69 69 69 70 73 74 76 78 78 74 71 72 73 72 70 68 65 65 66 64 60 56 54 52 52 52 51 50 50 51 52 53 55 58 62 64 66 67 69
70 71 72 73 74 76 76 77 77 76 76 77 77 77 76 76 76 76 76 77 77 77 76 75 75 75 75 74 73 73 72 72 71 70 70 72 72 72 73 74 76 78 80 80 75 71 71 71 69 65 63 61 62 63 61 57 52 49 49 49 49 49 48 46 47 48 50 53 55 59 62 64 65 67
72 74 75 75 76 78 79 80 80 80 80 80 79 77 77 77 77 78 78 77 77 77 76 75 75 74 73 72 72 72 73 74 74 73 73 74 74 74 74 75 76 78 80 80 74 71 71 69 65 60 57 57 59 59 57 54 51 47 45 46 47 46 44 42 42 45 48 51 54 57 60 62 63 66
74 76 77 78 78 80 82 83 84 84 83 82 80 79 78 78 78 78 77 76 75 75 75 75 74 74 73 73 73 74 75 76 76 76 76 76 76 75 76 76 76 77 80 79 73 70 69 66 62 57 52 51 55 56 53 50 49 46 43 43 44 43 41 39 40 43 47 50 53 56 59 61 62 64
76 78 78 79 81 82 85 87 88 87 85 83 81 80 79 78 78 77 76 75 74 74 75 75 75 74 74 74 75 76 77 78 79 79 79 78 77 77 77 77 76 77 78 76 71 68 66 63 59 55 49 45 49 53 52 47 45 44 42 41 40 39 38 38 40 43 46 50 52 54 57 59 61 64
78 80 81 82 84 85 88 90 90 88 85 83 81 80 79 78 76 76 75 75 76 76 76 76 76 76 77 77 77 78 79 80 80 80 80 79 78 78 78 77 77 77 76 74 69 65 62 60 57 53 49 44 43 47 49 47 44 42 40 38 37 37 36 37 39 43 46 48 50 53 56 58 60 63
80 82 84 86 87 88 91 93 91 88 85 83 82 81 79 78 77 76 76 77 78 79 79 79 78 78 79 79 79 80 81 81 81 81 80 79 79 78 78 76 75 74 73 71 66 61 58 56 53 50 47 45 42 41 43 45 46 43 38 35 35 35 35 35 38 42 45 46 49 51 54 56 58 61
82 84 86 88 90 92 94 94 91 87 85 84 83 82 80 79 78 78 79 80 81 82 82 82 81 81 80 80 81 82 82 82 81 81 80 80 78 77 77 75 72 69 68 66 62 58 53 51 49 46 44 43 41 39 39 40 44 45 39 32 31 32 33 34 38 41 42 44 47 49 51 54 57 60
82 85 87 89 92 94 95 94 91 88 86 85 85 84 82 81 80 81 82 83 84 85 85 84 83 82 82 82 82 83 83 82 81 80 80 79 77 75 74 72 69 66 63 60 58 54 50 46 44 43 41 40 39 38 38 39 42 43 39 32 28 30 32 34 36 38 40 42 44 47 50 54 57 60
83 86 88 92 94 95 96 95 92 89 88 88 87 85 84 83 83 83 85 86 87 88 87 85 84 83 83 83 83 82 82 81 80 79 78 76 74 72 71 69 66 62 59 56 53 50 46 43 41 40 39 38 36 35 37 39 40 39 36 31 27 28 31 33 34 36 38 39 43 47 50 54 56 59
84 88 91 94 96 97 96 95 93 91 90 90 89 87 86 86 85 85 87 89 90 89 87 86 84 83 83 83 82 82 81 80 78 76 75 73 70 67 66 65 62 59 55 52 49 47 43 40 38 37 37 37 35 33 35 39 39 36 33 30 27 27 29 31 32 34 36 38 42 46 49 52 55 58
88 91 94 96 97 98 97 95 93 93 92 92 90 88 87 87 86 87 88 90 90 89 87 86 85 84 83 82 81 79 77 75 73 71 69 68 66 63 61 60 59 57 53 49 45 42 41 38 36 35 35 36 34 32 33 37 37 34 31 29 28 27 27 29 31 32 34 38 42 45 48 51 54 56
92 95 96 98 99 99 96 96 96 95 94 93 90 88 87 87 86 87 89 90 90 88 86 86 85 84 82 79 77 75 73 71 69 67 65 63 62 60 58 57 56 54 51 47 43 39 37 36 35 33 34 35 33 32 33 35 35 33 30 28 28 28 27 28 31 32 33 37 40 44 47 49 52 55
95 96 98 99 99 97 96 98 98 96 94 92 89 87 86 86 86 88 89 90 89 87 85 85 84 82 80 77 75 72 70 68 65 63 61 59 58 56 55 53 51 49 47 45 42 38 36 34 32 31 33 34 32 30 32 33 33 32 30 28 28 28 28 28 30 31 33 36 39 42 46 48 50 53
96 97 100 100 98 96 98 99 98 96 94 92 88 86 86 87 88 89 89 89 88 86 85 83 81 79 76 74 72 69 67 64 61 59 57 55 53 51 50 48 46 44 43 42 39 37 36 34 31 29 31 32 31 29 30 32 31 30 30 29 28 28 28 27 29 31 32 35 39 42 45 47 49 52
97 100 101 99 97 98 101 101 98 97 95 91 88 86 87 88 89 89 88 87 86 85 82 79 76 73 71 69 67 65 63 61 58 56 54 51 49 47 45 44 43 41 40 39 37 36 35 33 30 29 29 30 30 28 28 30 30 29 29 30 29 28 28 28 28 30 32 35 38 41 44 46 48 51
100 101 99 97 98 101 103 102 100 98 94 89 86 86 86 87 87 86 84 84 83 81 77 73 71 68 66 64 62 60 59 57 55 53 51 49 47 45 43 41 40 40 38 37 35 34 33 31 29 28 28 29 29 27 27 28 30 29 29 30 29 28 28 27 28 30 32 34 38 41 43 45 47 50
101 99 96 97 101 104 105 104 101 97 91 87 86 86 85 85 83 82 81 80 77 74 71 67 65 63 60 58 57 55 53 52 50 49 47 46 44 42 41 40 39 38 37 35 33 32 31 30 27 27 28 28 27 26 26 27 29 29 29 30 29 28 27 27 27 29 31 33 37 40 42 44 46 49
98 96 97 100 104 107 107 105 101 94 89 87 87 86 85 83 81 80 78 76 73 69 67 64 61 58 55 53 51 50 48 47 46 45 44 42 41 40 39 38 37 36 35 33 31 29 29 28 27 26 27 27 26 25 25 26 28 28 29 30 29 28 27 26 26 28 30 33 36 39 41 43 45 47
97 97 100 104 107 108 107 104 98 92 87 86 86 85 83 81 80 77 75 72 68 65 63 60 57 54 51 49 47 46 45 44 44 42 41 39 38 38 37 36 35 34 33 31 29 27 26 26 26 25 25 25 25 24 24 25 26 27 28 29 29 27 26 26 26 27 29 33 36 38 40 42 44 46
97 100 104 108 109 108 106 101 95 89 86 85 84 82 81 79 77 74 71 67 64 61 59 57 54 51 48 46 44 43 42 42 41 40 38 37 36 35 35 34 33 32 31 29 27 25 24 24 25 24 24 24 24 23 23 23 25 26 27 28 28 26 25 25 26 27 29 32 35 37 39 41 44 46
100 104 108 109 109 107 103 98 91 87 84 82 81 80 79 77 74 70 66 62 60 57 55 53 50 48 46 44 43 42 41 40 38 37 36 35 34 33 33 32 32 31 30 28 26 24 22 23 23 22 22 23 23 22 22 23 24 24 25 27 27 24 23 25 26 27 29 31 33 36 38 41 45 47
103 107 108 108 108 105 100 94 89 85 83 80 78 78 76 74 70 66 62 59 56 54 51 49 47 45 43 42 41 41 40 38 37 35 34 33 33 32 32 31 30 30 29 28 26 23 21 22 22 21 20 21 22 21 21 22 23 23 23 25 25 23 23 25 26 27 28 30 32 35 38 41 45 47
106 107 107 107 106 102 97 91 87 84 81 79 77 76 73 69 66 62 58 56 53 51 49 47 46 44 42 41 40 38 37 36 35 34 33 32 32 31 31 29 29 29 28 27 25 22 20 20 20 19 19 20 21 20 21 22 22 21 22 22 23 23 24 25 26 26 28 30 32 35 38 42 45 47
105 105 106 105 102 97 92 87 84 82 80 78 75 72 69 65 61 57 54 52 49 47 46 46 45 43 42 41 39 38 36 35 34 32 31 31 30 30 29 28 27 27 27 26 23 21 20 19 19 18 19 20 20 20 21 21 21 20 21 21 21 23 24 25 25 26 28 30 32 35 38 41 44 47
103 104 104 101 96 91 87 84 82 80 78 75 72 68 64 60 57 53 50 47 45 44 43 43 43 42 40 39 38 37 35 34 33 31 30 30 29 29 28 27 26 25 25 24 22 20 18 18 17 17 18 19 20 20 21 21 20 20 20 21 21 23 25 25 26 27 29 30 33 35 38 41 44 46
Wind_Direction
322 322 322 321 321 321 322 322 320 316 315 319 320 320 317 311 306 303 300 298 296 296 296 297 298 298 299 299 299 299 299 300 300 300 300 299 298 295 290 286 282 277 273 269 267 267 265 263 261 261 263 264 264 263 261 258 255 252 251 250 249 247 242 238 234 231 230 231 233 234 233 232 231 229
321 321 322 322 322 322 322 322 319 316 317 320 320 319 316 312 308 305 303 302 300 300 300 300 300 300 299 299 298 299 299 300 300 300 300 300 298 295 290 285 281 278 276 273 270 268 267 266 266 266 268 270 271 271 270 266 262 257 253 250 249 249 248 245 241 235 231 229 230 232 232 231 230 229
321 321 322 323 323 323 323 322 320 318 318 320 320 319 318 316 314 312 311 309 306 304 303 302 301 300 299 299 300 301 301 302 302 301 300 299 298 295 291 286 282 281 280 279 276 273 270 270 270 271 272 275 276 276 277 276 271 265 260 256 252 250 248 247 245 241 235 231 228 229 231 231 230 228
320 320 323 324 324 324 323 323 322 319 319 319 319 319 318 317 315 314 312 310 308 306 304 304 303 300 299 301 304 306 305 304 302 300 299 297 294 291 290 287 286 286 285 284 282 280 277 274 273 274 276 277 277 277 279 280 278 273 266 261 257 253 249 247 246 244 240 235 230 228 228 230 230 228
319 320 323 324 325 324 323 323 322 320 319 318 317 317 317 315 313 313 312 311 312 311 310 310 307 302 300 305 309 309 308 306 303 300 298 295 291 287 286 285 284 285 284 284 283 282 280 277 277 277 277 277 278 278 279 280 281 278 272 264 260 256 251 248 245 244 242 239 235 230 227 228 229 229
321 322 324 324 324 324 323 323 322 320 318 317 316 317 317 314 312 313 314 314 315 316 317 317 313 306 304 308 310 308 307 308 308 306 300 293 288 286 284 283 283 282 281 281 280 279 278 277 277 277 276 277 278 279 279 280 282 281 277 270 264 258 252 248 246 243 242 240 238 234 229 226 227 228
323 324 325 324 324 323 322 321 322 320 318 316 316 317 317 314 313 314 315 315 315 316 318 318 315 311 308 308 306 303 304 307 310 310 304 293 288 288 287 284 282 280 279 279 278 277 277 275 274 273 274 275 276 277 279 280 281 281 279 275 269 262 255 249 246 243 241 240 238 236 233 228 225 225
324 324 324 323 323 322 321 320 321 321 319 318 318 318 317 315 315 315 315 314 315 315 315 314 313 311 309 307 305 303 303 303 305 307 304 296 293 295 294 289 284 281 279 278 278 277 277 275 272 271 271 272 272 274 276 278 280 280 279 276 271 265 258 251 246 243 240 238 237 236 234 230 227 224
323 323 323 323 323 322 322 321 321 321 320 318 318 316 315 315 314 313 314 314 315 314 313 313 311 309 308 308 307 305 304 303 303 304 302 297 294 296 297 294 290 286 283 281 279 278 276 273 272 271 271 271 271 273 274 276 278 278 277 274 271 266 260 253 247 243 240 237 236 235 234 231 228 225
322 321 321 322 322 322 322 321 321 321 321 319 317 314 313 315 314 312 312 314 314 313 312 311 309 308 308 308 308 307 306 305 305 305 303 300 297 298 298 297 294 290 287 284 282 280 277 275 273 273 273 273 273 274 274 275 275 275 274 272 269 265 260 254 248 244 240 237 235 233 233 231 229 226
321 320 321 321 322 322 322 321 321 322 322 321 318 314 314 315 315 313 312 313 313 312 312 311 308 307 307 308 308 307 307 307 307 306 305 303 302 301 300 298 296 293 289 286 284 282 280 279 277 277 276 276 276 275 275 274 273 272 271 269 267 264 260 256 251 246 241 238 235 233 232 231 229 226
319 320 320 320 321 323 322 321 322 323 323 321 318 315 314 315 315 314 313 313 313 314 314 311 309 308 307 307 307 306 307 307 306 306 305 304 303 302 301 299 296 293 291 288 286 284 282 281 280 280 279 279 278 277 277 276 274 272 270 268 266 263 260 256 252 248 244 240 237 234 232 231 230 227
319 319 320 320 321 322 322 322 323 323 322 321 319 316 315 316 316 315 313 312 314 316 314 310 308 309 309 307 307 306 306 306 306 305 304 303 303 302 301 299 296 293 291 289 288 287 285 284 283 283 282 282 281 280 278 277 275 273 271 268 266 263 260 256 253 250 246 242 238 235 233 230 230 228
318 319 319 319 320 321 321 322 322 322 322 321 319 318 316 316 317 315 313 313 314 315 313 308 307 309 310 309 308 307 306 306 306 305 305 304 304 303 301 298 295 293 291 290 289 288 287 287 286 286 285 284 283 281 279 277 276 274 272 269 266 263 260 256 253 250 247 244 241 238 234 231 229 228
318 318 319 319 320 321 322 322 321 321 321 320 319 317 315 315 315 314 313 313 314 313 312 309 309 310 310 309 308 308 307 307 307 306 306 305 304 302 299 296 294 293 293 292 291 290 289 289 289 289 287 286 284 282 280 278 276 274 272 270 267 264 260 257 253 250 247 245 242 239 236 233 230 228
317 318 318 319 320 321 322 321 320 320 321 320 317 315 314 314 314 313 313 314 315 314 313 311 310 310 310 309 308 308 308 308 307 306 305 304 303 301 298 296 294 293 294 294 293 292 291 291 292 291 289 287 285 283 280 278 276 275 273 271 268 264 261 256 252 250 247 245 243 240 237 234 230 227
317 318 319 319 320 320 320 319 319 319 319 318 316 314 313 314 314 314 315 315 315 313 312 310 309 309 309 308 307 308 308 307 306 306 305 303 302 300 298 296 295 295 295 295 295 294 294 294 295 293 291 289 286 283 281 279 277 275 273 270 267 263 259 255 252 249 247 245 243 240 237 234 231 227
317 318 318 319 318 318 318 318 318 318 317 317 315 314 314 314 315 315 314 313 312 311 311 310 309 308 308 307 307 307 306 306 306 306 305 304 303 302 300 299 298 297 296 296 296 296 296 296 296 295 292 289 286 283 282 280 278 275 273 270 266 262 258 255 252 249 246 244 242 240 237 234 230 226
316 317 318 317 317 317 317 317 317 317 317 317 316 315 315 314 315 315 313 312 312 312 311 310 309 307 307 306 306 306 306 306 306 306 305 303 303 302 301 300 299 299 298 297 298 298 298 298 297 295 292 290 287 284 282 279 277 275 272 268 265 261 258 254 252 249 245 242 240 238 236 233 229 225
316 316 317 317 317 316 317 318 318 319 318 318 317 316 315 315 315 314 313 312 311 311 310 309 307 306 306 306 306 306 306 306 306 305 304 303 302 302 301 301 300 300 299 299 300 301 300 298 297 295 293 291 288 285 282 279 277 274 271 267 264 261 258 254 251 248 245 241 238 236 234 232 228 224
315 316 317 317 317 317 318 319 320 320 320 319 318 317 316 316 315 313 312 311 310 310 309 308 307 306 306 307 307 307 306 306 305 305 304 303 302 302 301 300 300 300 299 299 301 302 301 298 297 295 294 291 288 285 282 280 277 273 270 267 264 261 258 253 249 246 243 240 236 233 231 230 226 222
316 316 317 318 319 319 320 321 321 321 321 320 319 318 316 315 314 312 312 311 310 310 309 308 308 307 307 307 307 306 305 305 304 304 303 302 302 301 300 300 300 300 299 300 302 303 301 298 297 295 293 291 287 283 282 281 278 274 270 266 263 260 257 253 247 243 240 237 234 231 229 227 224 220
316 317 318 319 320 320 321 322 322 322 321 320 318 317 316 315 313 313 312 311 310 309 308 308 308 308 307 307 306 306 305 304 304 303 302 302 301 301 300 300 300 300 299 300 302 302 300 299 297 294 292 290 286 283 281 279 278 275 269 263 261 259 256 252 246 240 237 234 231 228 227 225 222 217
317 318 319 319 320 320 321 322 322 322 321 319 318 317 316 315 314 313 313 312 311 310 309 309 308 308 308 307 306 305 305 304 303 303 302 302 301 301 301 300 300 300 300 301 302 302 301 299 298 295 292 289 286 284 282 279 275 272 268 264 260 257 252 248 243 237 234 231 229 226 225 224 220 216
317 318 319 319 319 320 321 322 322 322 320 320 319 318 317 315 315 314 314 314 313 312 311 310 309 308 307 306 306 305 304 303 302 302 302 302 302 302 301 301 301 301 300 301 302 302 301 300 298 296 293 289 285 283 282 280 275 269 266 263 261 256 249 243 239 235 232 229 227 225 224 222 219 215
317 318 318 318 318 319 320 321 322 321 320 319 319 317 316 315 315 316 316 316 315 313 311 310 308 307 307 306 306 304 303 303 303 303 303 302 302 301 300 300 300 300 300 301 301 301 300 299 296 294 292 289 285 280 278 278 276 271 266 261 259 254 246 239 236 233 230 227 225 223 222 221 219 216
316 316 316 317 318 318 320 321 321 320 319 319 318 317 316 316 317 317 317 317 316 313 311 309 308 307 307 306 305 304 304 303 303 303 302 302 301 301 300 300 300 300 299 299 300 300 299 296 294 292 289 287 284 279 274 272 271 271 268 263 257 251 244 236 233 231 228 225 224 222 220 219 218 215
314 314 315 316 317 318 319 320 320 319 319 319 319 318 318 317 317 317 317 317 316 313 311 309 308 308 307 306 305 304 304 303 303 303 302 301 301 301 301 300 300 300 299 299 299 299 297 295 292 289 286 283 281 277 274 269 267 268 268 264 255 248 242 236 232 230 227 224 222 220 218 217 216 213
313 313 314 315 316 317 319 319 319 319 319 319 320 319 318 317 317 317 317 316 315 313 311 310 309 308 307 306 305 304 304 304 304 303 303 302 302 301 301 300 300 300 300 299 299 298 296 294 291 288 285 281 277 273 271 269 266 265 265 262 253 244 241 237 232 228 225 222 220 219 217 216 215 213
311 312 313 314 316 317 318 319 319 319 319 319 319 319 318 317 317 316 316 315 314 313 311 310 308 308 307 306 306 305 305 304 304 303 302 302 301 301 301 300 300 300 300 299 298 297 296 293 290 288 284 280 275 271 267 266 266 264 262 260 253 242 237 236 232 226 221 219 218 217 216 215 213 212
310 311 312 314 316 317 318 318 319 319 318 319 319 318 317 316 316 315 314 314 313 312 311 310 309 308 307 306 306 304 304 303 303 303 302 302 302 302 302 301 300 300 299 298 297 296 295 292 290 286 282 277 274 269 265 263 264 262 259 256 252 243 233 230 230 224 219 217 217 216 215 214 212 212
310 311 312 314 316 317 318 318 319 319 318 318 318 317 316 315 314 314 313 313 312 312 311 310 309 308 308 306 305 305 305 305 305 305 304 304 303 302 301 300 299 299 299 298 297 295 293 291 289 284 278 274 271 267 263 261 261 260 256 251 249 244 233 226 225 222 217 216 216 215 214 213 212 211
310 311 313 315 316 317 318 319 319 319 318 317 316 315 314 314 313 313 313 313 312 311 311 311 310 309 309 308 308 308 307 307 306 305 304 303 302 301 300 299 298 298 298 297 296 295 293 290 287 282 275 271 268 264 260 258 257 256 254 249 244 242 236 226 222 220 217 215 215 214 213 212 211 211
310 312 314 315 317 318 320 320 319 318 317 316 315 314 314 314 314 314 314 313 312 312 312 311 311 310 309 309 309 308 308 307 306 305 304 302 301 301 300 299 298 297 296 296 296 295 293 290 286 279 272 269 266 260 256 255 254 252 251 248 243 239 234 227 222 219 217 215 214 213 212 211 211 210
311 313 314 316 317 320 320 320 319 318 316 315 315 315 315 314 314 314 314 313 313 313 312 312 311 310 309 309 309 308 308 307 306 306 305 304 303 302 301 300 299 297 296 295 295 294 292 290 286 278 271 266 263 258 252 251 250 248 246 245 242 236 232 226 222 219 217 215 214 213 210 210 210 210
312 314 315 316 319 320 320 319 319 317 316 315 315 314 314 314 314 314 313 313 313 312 312 311 310 309 309 309 308 308 307 306 306 305 305 304 304 303 302 300 299 297 296 295 294 293 290 288 284 277 271 265 260 255 249 246 246 244 242 242 240 235 230 225 221 219 217 214 214 213 209 208 209 210
313 314 315 317 319 319 319 319 318 317 316 315 314 314 314 314 314 313 313 313 312 311 311 310 310 310 309 309 308 306 306 305 304 304 304 304 303 302 301 300 299 297 296 295 294 292 289 286 281 275 269 263 257 252 246 242 241 240 239 240 239 235 230 225 219 218 217 214 213 212 209 207 208 210
314 315 316 318 318 319 319 319 318 317 316 315 314 314 314 314 314 314 314 314 313 312 312 311 311 310 309 308 307 306 305 304 304 304 304 303 302 301 300 300 298 297 295 294 293 290 288 284 279 272 266 260 255 249 243 238 238 237 237 238 238 235 231 225 219 216 216 214 212 211 208 205 207 209
314 316 317 317 318 318 319 319 318 316 316 315 314 314 314 315 315 315 315 314 314 313 312 311 311 311 310 309 308 307 306 306 305 305 305 304 303 302 301 299 298 296 295 294 292 289 286 282 276 270 263 257 252 247 241 235 233 234 235 237 237 234 230 226 220 216 215 214 211 209 206 204 206 207
315 316 316 317 317 318 319 318 317 316 315 315 314 315 315 315 316 316 315 315 314 312 312 311 312 312 311 311 310 309 308 307 307 306 305 304 303 302 301 300 298 297 295 294 292 289 285 279 274 268 261 254 248 244 239 233 230 231 233 236 237 233 228 226 221 216 213 213 210 207 204 203 204 205
315 316 315 316 317 318 318 317 316 315 314 315 315 315 316 316 316 316 315 314 313 312 312 312 313 313 313 313 313 312 311 310 309 307 306 305 303 303 302 301 299 298 297 296 294 290 285 278 272 265 257 251 245 240 236 233 229 228 230 234 236 233 226 224 222 216 212 211 208 205 203 202 203 203
314 314 315 316 317 317 317 316 315 315 315 316 316 316 316 316 316 315 315 314 313 312 313 313 314 315 315 315 314 313 312 311 310 309 307 305 305 304 303 302 301 300 298 296 294 291 285 277 270 262 253 246 241 236 233 231 230 227 227 231 233 230 223 221 220 215 211 209 206 203 201 201 201 202
314 315 315 316 317 317 317 316 315 316 316 317 317 317 316 316 315 315 314 314 313 314 314 315 316 316 316 316 316 315 314 312 311 309 307 306 306 305 304 303 302 300 298 296 295 291 284 276 269 260 248 241 236 231 229 230 230 228 227 227 227 224 221 219 217 213 210 207 203 201 199 199 199 200
314 315 316 317 317 317 316 316 316 316 317 317 317 316 316 315 314 314 314 314 314 315 315 316 316 317 318 318 318 317 316 314 312 309 308 307 306 306 304 303 302 300 297 296 294 289 283 275 267 256 243 235 230 226 226 228 228 227 226 223 219 218 219 217 214 211 208 204 201 199 198 197 197 197
315 316 317 318 317 317 316 316 316 316 316 316 316 315 315 314 313 314 314 314 314 314 314 314 315 316 318 318 318 318 317 315 312 310 308 307 306 306 305 303 301 299 297 295 293 288 280 272 263 250 237 229 225 222 223 224 226 226 224 218 213 212 214 215 212 209 205 201 198 197 196 195 195 195
Height
10915 10913 10911 10908 10905 10903 10900 10897 10894 10892 10889 10885 10882 10878 10875 10873 10872 10871 10871 10871 10870 10867 10865 10861 10858 10855 10852 10850 10847 10844 10842 10840 10837 10835 10833 10832 10830 10829 10828 10827 10827 10828 10828 10828 10827 10827 10827 10827 10827 10826 10826 10826 10826 10825 10826 10826 10826 10827 10827 10828 10828 10829 10830 10831 10833 10835 10838 10841 10845 10848 10852 10856 10860 10863
10910 10908 10905 10903 10900 10897 10894 10891 10889 10886 10883 10880 10876 10873 10870 10868 10866 10864 10864 10864 10862 10860 10858 10856 10852 10849 10846 10843 10841 10837 10834 10832 10829 10826 10824 10823 10821 10820 10820 10819 10819 10820 10820 10820 10820 10819 10819 10818 10818 10818 10817 10817 10817 10817 10817 10817 10817 10818 10818 10819 10820 10821 10821 10821 10823 10824 10827 10831 10834 10838 10842 10847 10851 10855
10905 10902 10900 10898 10895 10892 10889 10886 10884 10881 10878 10875 10872 10868 10865 10862 10860 10857 10856 10855 10854 10852 10850 10849 10846 10843 10840 10837 10835 10832 10828 10825 10822 10819 10818 10816 10814 10812 10811 10811 10811 10811 10811 10811 10811 10811 10810 10810 10809 10808 10807 10806 10806 10806 10806 10806 10807 10807 10808 10808 10809 10809 10810 10811 10812 10813 10816 10819 10824 10828 10832 10837 10841 10845
10900 10897 10894 10892 10889 10887 10884 10880 10878 10875 10873 10869 10866 10863 10860 10857 10854 10852 10849 10848 10847 10845 10842 10841 10839 10836 10834 10831 10829 10826 10823 10820 10816 10813 10811 10810 10808 10806 10804 10803 10802 10801 10801 10800 10800 10800 10800 10800 10799 10797 10796 10795 10795 10795 10795 10795 10795 10795 10796 10796 10796 10797 10798 10799 10800 10802 10804 10807 10812 10817 10822 10826 10831 10836
10896 10893 10889 10886 10883 10880 10877 10874 10871 10868 10866 10863 10860 10857 10854 10851 10849 10846 10843 10841 10839 10837 10835 10832 10830 10829 10827 10826 10823 10820 10817 10815 10812 10808 10805 10803 10801 10799 10797 10796 10795 10794 10792 10791 10790 10789 10789 10788 10787 10786 10785 10784 10784 10784 10784 10783 10783 10783 10783 10783 10783 10784 10785 10787 10788 10790 10792 10795 10799 10805 10811 10816 10821 10826
10891 10888 10884 10880 10877 10874 10871 10867 10864 10861 10859 10856 10853 10851 10848 10845 10843 10840 10837 10834 10832 10830 10828 10825 10823 10822 10821 10819 10817 10815 10812 10809 10807 10803 10800 10796 10794 10792 10790 10789 10787 10786 10785 10783 10781 10780 10779 10778 10776 10775 10774 10773 10772 10772 10772 10771 10770 10769 10769 10769 10770 10771 10772 10773 10775 10778 10781 10784 10787 10792 10798 10804 10810 10815
10885 10882 10879 10875 10872 10869 10865 10862 10859 10855 10852 10850 10847 10845 10841 10839 10836 10833 10830 10828 10825 10823 10821 10820 10818 10816 10815 10813 10811 10809 10806 10803 10800 10797 10794 10792 10789 10786 10784 10781 10779 10777 10776 10774 10772 10771 10770 10768 10767 10765 10764 10762 10761 10759 10759 10758 10757 10756 10756 10756 10756 10757 10758 10760 10762 10764 10767 10771 10775 10779 10785 10791 10797 10803
10880 10877 10874 10870 10866 10863 10860 10856 10853 10849 10846 10843 10841 10838 10835 10832 10829 10827 10824 10821 10818 10815 10812 10811 10810 10808 10806 10804 10803 10801 10798 10795 10793 10791 10788 10785 10783 10780 10777 10774 10771 10768 10765 10763 10761 10759 10758 10756 10755 10754 10753 10752 10750 10748 10746 10745 10744 10743 10742 10742 10743 10743 10744 10746 10747 10750 10753 10757 10762 10766 10771 10777 10783 10790
10874 10871 10868 10865 10861 10857 10853 10850 10847 10844 10839 10836 10834 10832 10829 10826 10823 10820 10818 10815 10811 10807 10804 10801 10800 10798 10796 10793 10792 10791 10789 10785 10783 10781 10779 10776 10774 10771 10768 10765 10761 10758 10755 10751 10749 10747 10745 10742 10741 10740 10739 10738 10738 10736 10735 10733 10732 10730 10729 10729 10729 10729 10730 10732 10733 10736 10739 10742 10746 10751 10756 10762 10769 10776
10868 10865 10862 10859 10855 10852 10848 10844 10841 10838 10834 10830 10827 10825 10823 10820 10817 10814 10811 10808 10805 10801 10797 10793 10790 10787 10785 10782 10780 10778 10777 10773 10770 10767 10765 10763 10761 10759 10755 10751 10748 10745 10743 10739 10736 10734 10731 10729 10728 10726 10725 10724 10724 10723 10722 10721 10720 10718 10716 10715 10715 10715 10716 10718 10719 10721 10724 10727 10731 10736 10741 10747 10754 10762
10863 10859 10855 10852 10850 10847 10843 10838 10835 10832 10828 10824 10820 10818 10815 10812 10809 10806 10804 10801 10798 10795 10790 10787 10783 10779 10775 10773 10770 10766 10764 10761 10758 10755 10752 10749 10747 10745 10742 10737 10733 10731 10729 10727 10724 10721 10719 10717 10715 10714 10713 10711 10710 10709 10708 10708 10706 10704 10703 10702 10702 10702 10702 10703 10705 10707 10709 10712 10716 10720 10726 10732 10739 10748
10857 10853 10849 10845 10843 10841 10837 10832 10828 10825 10822 10818 10814 10811 10808 10804 10801 10799 10796 10793 10790 10787 10783 10779 10776 10772 10768 10765 10763 10758 10754 10752 10748 10745 10742 10739 10734 10731 10729 10724 10721 10719 10717 10715 10712 10710 10707 10706 10705 10703 10702 10699 10697 10696 10694 10692 10690 10689 10688 10688 10688 10688 10689 10689 10691 10692 10695 10698 10701 10706 10711 10717 10724 10733
10851 10847 10842 10838 10836 10834 10830 10826 10822 10819 10815 10811 10808 10804 10801 10797 10794 10791 10788 10785 10782 10779 10775 10771 10768 10765 10761 10757 10754 10750 10746 10743 10740 10736 10734 10730 10726 10721 10716 10711 10708 10708 10707 10705 10702 10698 10695 10694 10694 10692 10690 10687 10684 10682 10679 10676 10674 10672 10672 10673 10673 10674 10675 10675 10676 10677 10680 10683 10687 10692 10697 10703 10710 10718
10845 10840 10836 10831 10829 10827 10823 10819 10816 10813 10810 10806 10801 10797 10794 10790 10787 10783 10780 10777 10774 10771 10766 10762 10759 10756 10752 10747 10744 10741 10737 10734 10730 10726 10723 10720 10715 10712 10707 10701 10696 10696 10697 10697 10693 10687 10681 10681 10682 10680 10677 10673 10668 10666 10663 10660 10658 10657 10657 10657 10658 10659 10660 10661 10661 10662 10664 10668 10672 10677 10683 10689 10695 10704
10838 10835 10830 10825 10822 10819 10815 10811 10808 10805 10803 10799 10795 10791 10787 10783 10779 10776 10772 10769 10766 10762 10757 10752 10748 10745 10741 10737 10733 10731 10728 10724 10720 10716 10712 10708 10705 10701 10698 10693 10687 10683 10685 10686 10684 10677 10669 10668 10670 10668 10663 10658 10653 10649 10647 10644 10642 10642 10642 10642 10643 10644 10645 10646 10647 10648 10650 10654 10658 10663 10669 10675 10681 10689
10831 10828 10824 10819 10815 10811 10808 10803 10799 10796 10794 10791 10787 10783 10779 10775 10771 10767 10763 10760 10756 10751 10748 10743 10738 10734 10731 10727 10722 10720 10717 10714 10710 10707 10702 10698 10695 10691 10688 10685 10679 10673 10673 10674 10673 10667 10657 10654 10657 10655 10647 10642 10637 10632 10630 10628 10627 10628 10628 10628 10628 10629 10630 10631 10632 10634 10637 10640 10644 10648 10654 10661 10668 10675
10825 10821 10817 10813 10808 10804 10801 10797 10792 10789 10786 10783 10779 10774 10769 10765 10761 10756 10752 10749 10745 10741 10738 10734 10729 10724 10721 10717 10712 10709 10707 10704 10700 10697 10692 10687 10684 10681 10677 10674 10669 10664 10662 10661 10661 10656 10645 10641 10643 10640 10631 10625 10620 10616 10614 10613 10612 10613 10614 10614 10614 10615 10616 10617 10619 10622 10624 10627 10630 10635 10640 10647 10654 10662
10817 10814 10811 10807 10802 10798 10794 10791 10787 10783 10779 10775 10771 10766 10760 10755 10751 10746 10742 10739 10735 10732 10728 10724 10719 10714 10710 10706 10702 10698 10695 10692 10688 10685 10681 10675 10672 10669 10665 10660 10656 10652 10648 10647 10649 10646 10634 10628 10629 10624 10616 10610 10604 10601 10601 10599 10599 10600 10600 10600 10601 10601 10603 10605 10607 10610 10612 10615 10618 10623 10628 10634 10641 10649
10810 10807 10804 10799 10795 10791 10787 10784 10780 10776 10771 10767 10762 10757 10752 10746 10741 10737 10733 10729 10725 10721 10717 10713 10708 10704 10700 10696 10693 10688 10684 10681 10677 10674 10670 10665 10662 10659 10654 10648 10643 10639 10633 10631 10635 10635 10624 10616 10614 10609 10601 10597 10592 10588 10587 10586 10586 10588 10588 10588 10589 10590 10592 10594 10596 10598 10601 10604 10607 10611 10616 10621 10628 10636
10802 10799 10796 10792 10787 10782 10778 10775 10772 10767 10762 10757 10752 10748 10742 10737 10731 10727 10723 10719 10715 10711 10707 10703 10698 10693 10689 10685 10680 10676 10673 10669 10666 10664 10660 10655 10652 10649 10644 10637 10631 10625 10618 10615 10620 10622 10614 10604 10600 10595 10589 10586 10580 10575 10573 10574 10575 10576 10577 10577 10578 10579 10581 10583 10585 10587 10590 10593 10596 10600 10604 10610 10616 10624
10794 10790 10787 10783 10778 10773 10768 10765 10761 10757 10752 10747 10742 10737 10732 10727 10722 10717 10712 10708 10703 10699 10696 10692 10687 10682 10678 10673 10669 10664 10660 10657 10655 10653 10649 10644 10640 10638 10633 10627 10621 10614 10605 10602 10606 10608 10600 10592 10588 10584 10580 10575 10569 10563 10561 10562 10564 10566 10566 10567 10568 10569 10570 10573 10576 10578 10581 10583 10586 10589 10593 10598 10604 10612
10785 10781 10777 10774 10769 10763 10759 10755 10751 10748 10743 10738 10732 10727 10723 10718 10712 10708 10703 10698 10693 10688 10683 10679 10675 10671 10667 10664 10660 10655 10651 10647 10644 10643 10639 10634 10630 10627 10622 10617 10612 10604 10594 10590 10594 10594 10586 10579 10576 10574 10571 10565 10557 10553 10553 10552 10553 10556 10557 10557 10558 10559 10561 10564 10567 10569 10571 10573 10576 10579 10583 10588 10594 10601
10777 10772 10768 10764 10760 10755 10750 10746 10742 10738 10733 10728 10723 10719 10714 10709 10703 10698 10694 10690 10685 10679 10674 10669 10666 10662 10658 10655 10651 10646 10641 10636 10633 10630 10627 10623 10619 10615 10610 10605 10601 10594 10584 10579 10582 10581 10573 10567 10564 10562 10562 10558 10547 10541 10544 10545 10544 10545 10547 10548 10548 10550 10553 10556 10557 10559 10561 10563 10566 10570 10574 10579 10585 10593
10768 10764 10760 10756 10752 10748 10743 10738 10733 10728 10723 10718 10714 10709 10704 10700 10694 10689 10684 10680 10675 10670 10665 10660 10656 10652 10648 10645 10640 10635 10630 10625 10620 10617 10613 10609 10606 10602 10597 10592 10588 10583 10575 10569 10570 10569 10562 10557 10553 10550 10551 10550 10541 10533 10532 10536 10536 10536 10537 10539 10540 10542 10545 10547 10548 10549 10551 10554 10558 10562 10567 10571 10578 10586
10760 10756 10752 10748 10744 10740 10735 10730 10725 10719 10713 10708 10704 10700 10695 10690 10685 10680 10675 10670 10665 10660 10655 10651 10647 10642 10638 10634 10630 10625 10619 10614 10609 10604 10600 10596 10592 10588 10584 10579 10575 10569 10563 10558 10558 10557 10552 10546 10543 10540 10539 10539 10537 10530 10524 10524 10526 10528 10529 10531 10532 10534 10536 10538 10540 10541 10543 10547 10552 10556 10560 10565 10571 10579
10753 10748 10744 10740 10736 10732 10727 10721 10716 10710 10705 10700 10695 10691 10686 10681 10676 10671 10666 10661 10655 10650 10645 10640 10636 10631 10627 10623 10618 10612 10607 10602 10598 10592 10587 10583 10580 10576 10571 10567 10564 10559 10553 10547 10546 10546 10543 10538 10534 10532 10530 10529 10528 10526 10521 10517 10515 10517 10521 10524 10525 10526 10529 10531 10533 10533 10537 10542 10546 10550 10554 10560 10566 10573
10746 10740 10736 10732 10727 10723 10718 10713 10708 10703 10698 10693 10688 10682 10677 10672 10666 10661 10656 10651 10645 10639 10633 10628 10624 10620 10616 10611 10606 10600 10594 10590 10585 10580 10575 10570 10567 10563 10558 10554 10552 10549 10545 10540 10536 10535 10534 10531 10526 10524 10524 10522 10519 10518 10516 10513 10509 10508 10513 10518 10520 10520 10522 10524 10525 10527 10532 10536 10540 10544 10549 10554 10559 10566
10738 10733 10728 10724 10719 10715 10710 10705 10700 10695 10689 10684 10678 10673 10667 10661 10656 10651 10646 10640 10634 10627 10621 10616 10612 10608 10604 10599 10594 10588 10582 10578 10573 10568 10562 10557 10553 10550 10545 10540 10538 10537 10535 10531 10528 10526 10525 10523 10519 10517 10516 10515 10513 10511 10508 10507 10504 10503 10506 10511 10514 10515 10516 10518 10520 10522 10527 10531 10534 10538 10542 10546 10551 10558
10731 10726 10722 10717 10713 10708 10702 10697 10691 10686 10680 10674 10668 10663 10657 10651 10646 10640 10635 10628 10621 10615 10609 10604 10601 10597 10592 10586 10581 10576 10570 10565 10560 10554 10549 10544 10541 10538 10533 10528 10526 10525 10524 10521 10519 10517 10516 10514 10511 10509 10508 10507 10506 10505 10502 10499 10499 10499 10501 10505 10508 10510 10511 10512 10515 10518 10521 10525 10528 10532 10535 10540 10545 10552
10725 10720 10715 10710 10705 10700 10694 10688 10682 10676 10670 10665 10659 10653 10647 10641 10636 10630 10624 10617 10610 10604 10598 10592 10589 10585 10580 10574 10569 10564 10558 10553 10548 10543 10538 10533 10530 10527 10523 10518 10515 10514 10513 10511 10510 10508 10507 10505 10503 10502 10500 10499 10498 10498 10496 10494 10493 10495 10497 10500 10502 10504 10506 10508 10510 10513 10516 10519 10522 10526 10530 10535 10541 10547
10718 10713 10707 10702 10696 10691 10685 10679 10673 10667 10661 10655 10650 10644 10638 10632 10626 10620 10614 10607 10599 10593 10587 10581 10575 10572 10568 10563 10557 10552 10547 10543 10538 10534 10529 10524 10519 10517 10513 10509 10506 10504 10502 10502 10502 10501 10499 10497 10496 10495 10494 10492 10491 10491 10491 10489 10488 10490 10493 10495 10497 10499 10502 10504 10505 10508 10512 10514 10517 10521 10525 10530 10536 10542
10710 10705 10699 10693 10688 10682 10676 10669 10663 10657 10650 10645 10639 10634 10628 10623 10617 10611 10604 10596 10589 10583 10577 10570 10564 10559 10555 10550 10545 10540 10535 10531 10527 10522 10518 10514 10510 10507 10504 10501 10498 10495 10493 10492 10493 10493 10492 10491 10489 10488 10487 10486 10485 10485 10485 10484 10484 10485 10488 10491 10492 10494 10497 10499 10501 10504 10507 10510 10512 10517 10521 10526 10531 10537
10701 10696 10691 10685 10679 10673 10667 10660 10653 10647 10641 10636 10630 10625 10620 10613 10607 10601 10594 10585 10577 10571 10566 10560 10552 10545 10540 10535 10530 10526 10522 10518 10515 10512 10509 10505 10502 10499 10496 10494 10491 10489 10486 10484 10484 10485 10485 10484 10483 10482 10480 10479 10479 10480 10480 10479 10480 10481 10483 10486 10488 10490 10492 10495 10497 10500 10503 10505 10508 10512 10517 10522 10527 10533
10692 10687 10682 10676 10671 10665 10658 10651 10645 10638 10632 10627 10621 10615 10609 10602 10595 10589 10582 10573 10565 10559 10554 10549 10542 10535 10528 10523 10519 10516 10512 10509 10506 10503 10501 10498 10495 10492 10489 10487 10484 10483 10481 10479 10478 10477 10477 10477 10477 10476 10475 10473 10473 10475 10475 10474 10475 10477 10479 10481 10484 10486 10488 10491 10493 10496 10499 10502 10504 10508 10513 10518 10524 10529
10684 10678 10672 10666 10662 10656 10650 10643 10636 10628 10621 10614 10609 10603 10597 10590 10583 10577 10570 10563 10554 10548 10542 10538 10533 10527 10522 10517 10512 10508 10504 10500 10497 10494 10492 10489 10487 10484 10482 10480 10478 10476 10475 10474 10473 10472 10471 10471 10471 10470 10469 10468 10468 10470 10471 10470 10471 10474 10476 10477 10480 10482 10484 10487 10490 10493 10495 10498 10501 10505 10510 10515 10520 10525
10676 10669 10663 10657 10652 10646 10640 10634 10627 10620 10612 10605 10600 10594 10589 10583 10576 10569 10562 10555 10548 10541 10535 10530 10525 10520 10515 10511 10506 10501 10497 10493 10490 10487 10484 10482 10480 10478 10476 10474 10472 10471 10469 10469 10469 10468 10466 10466 10466 10465 10464 10464 10464 10466 10467 10467 10468 10470 10472 10473 10476 10478 10480 10483 10486 10489 10492 10495 10498 10502 10507 10512 10517 10521
10667 10660 10654 10649 10644 10637 10630 10623 10616 10610 10603 10596 10590 10584 10580 10575 10568 10561 10555 10548 10541 10535 10529 10524 10519 10515 10510 10505 10500 10496 10492 10488 10485 10482 10479 10477 10475 10472 10470 10469 10467 10466 10465 10464 10464 10463 10462 10461 10461 10460 10459 10459 10460 10462 10463 10464 10465 10467 10469 10470 10472 10475 10477 10480 10483 10486 10489 10492 10495 10499 10504 10509 10513 10518
10657 10651 10645 10640 10634 10627 10620 10612 10604 10598 10592 10585 10577 10572 10567 10563 10557 10551 10545 10538 10531 10526 10520 10516 10512 10509 10504 10500 10496 10491 10487 10484 10480 10478 10475 10472 10470 10468 10466 10464 10463 10461 10460 10460 10460 10459 10457 10456 10455 10455 10455 10455 10456 10458 10460 10461 10462 10464 10466 10467 10469 10472 10475 10477 10480 10483 10486 10489 10492 10496 10501 10506 10511 10515
10647 10641 10635 10629 10623 10616 10609 10601 10594 10588 10583 10576 10568 10561 10556 10551 10546 10540 10534 10528 10523 10517 10512 10508 10505 10502 10498 10494 10490 10486 10482 10479 10475 10473 10470 10468 10466 10463 10461 10460 10458 10457 10456 10455 10455 10454 10453 10452 10451 10451 10451 10452 10453 10454 10456 10458 10460 10461 10463 10465 10466 10469 10472 10475 10477 10480 10483 10486 10489 10493 10499 10504 10508 10513
10637 10630 10624 10618 10612 10606 10600 10592 10585 10580 10574 10568 10560 10553 10547 10541 10536 10531 10525 10520 10515 10511 10506 10501 10498 10494 10491 10487 10484 10480 10477 10474 10471 10468 10466 10463 10461 10459 10457 10455 10454 10452 10451 10450 10450 10450 10449 10448 10447 10447 10448 10448 10449 10451 10453 10455 10457 10459 10460 10462 10464 10467 10470 10472 10474 10477 10480 10483 10487 10491 10496 10501 10505 10510
10629 10622 10615 10609 10603 10597 10591 10585 10578 10572 10566 10560 10553 10545 10539 10532 10527 10522 10518 10513 10509 10505 10500 10496 10492 10488 10485 10481 10478 10474 10472 10469 10466 10464 10461 10459 10457 10455 10453 10451 10450 10448 10447 10446 10445 10445 10445 10444 10443 10443 10444 10445 10446 10448 10450 10452 10455 10457 10459 10460 10462 10465 10468 10470 10472 10474 10478 10481 10485 10489 10494 10498 10503 10508
10622 10615 10608 10601 10594 10587 10581 10575 10568 10562 10556 10550 10544 10537 10531 10525 10519 10514 10511 10507 10502 10498 10495 10491 10487 10484 10480 10477 10474 10470 10467 10464 10462 10460 10457 10455 10453 10451 10449 10447 10446 10444 10442 10441 10441 10441 10441 10440 10440 10440 10441 10442 10443 10445 10447 10450 10452 10455 10457 10459 10460 10463 10465 10467 10469 10472 10476 10479 10483 10487 10491 10496 10500 10505
10614 10606 10599 10593 10585 10577 10570 10564 10558 10551 10546 10541 10535 10529 10523 10518 10513 10508 10504 10500 10496 10492 10489 10485 10482 10479 10476 10473 10470 10467 10464 10461 10458 10456 10454 10452 10449 10447 10446 10444 10442 10440 10438 10438 10438 10437 10437 10437 10437 10437 10438 10439 10441 10443 10445 10447 10450 10453 10455 10457 10459 10461 10462 10464 10467 10471 10474 10477 10481 10485 10489 10493 10498 10504
10607 10598 10592 10585 10577 10568 10561 10555 10548 10542 10537 10532 10527 10522 10517 10512 10508 10504 10500 10495 10491 10487 10484 10481 10478 10475 10471 10468 10466 10463 10460 10457 10455 10453 10450 10448 10446 10444 10442 10441 10439 10437 10435 10434 10434 10434 10434 10434 10434 10435 10435 10437 10438 10441 10443 10446 10449 10451 10454 10456 10458 10459 10461 10463 10466 10469 10472 10475 10479 10483 10487 10491 10496 10502
10598 10591 10584 10577 10569 10562 10554 10547 10541 10535 10530 10526 10521 10516 10511 10506 10502 10499 10495 10491 10487 10484 10481 10477 10474 10471 10468 10465 10462 10460 10457 10454 10451 10449 10447 10445 10443 10441 10440 10438 10436 10434 10432 10431 10431 10431 10431 10431 10432 10432 10433 10434 10436 10439 10442 10445 10447 10450 10452 10454 10456 10457 10459 10462 10464 10467 10471 10474 10478 10481 10485 10490 10495 10500